THORAD DELTA 1 DEB, 8164

Orbit data source: Space-Track

THORAD DELTA 1 DEB, 8164 is space debris in SSO originally from a launch on Fri, 15 Nov 1974 UTC launched from the Air Force Western Test Range (AFWTR). Debris objects in space refer to the collection of defunct objects orbiting the Earth. Examples of debris include non-operational satellites, rocket bodies, and fragments generated from explosions, collisions, or faulty payload assembly.

Loading next visibility...
THORAD DELTA 1 DEB details
Identifier
8164, 1974-089AE
Orbit
SSO
Last TLE update20 hours ago
Origin
Flag of USGSFC (US)
ManufacturerUnknown
MissionSpacecraft
Bus & MotorUnknown
MassUnknown
Launch date (UTC)
1974-11-15 (50 years ago)
Launch vehicleUnknown
Launch site
Air Force Western Test Range (AFWTR)
Object type
Payload
Rocket body
Debris
Shape & HBRUnknown
Radar Cross SectionMedium (>0.1 m² and <1 m²)

Expand to show TLE details & history

TLE from 20 hours ago
0 THORAD DELTA 1 DEB
1  8164U 74089AE  24360.63020242 -.00000017  00000-0  20978-3 0  9999
2  8164 101.5567 144.1885 0120698 271.0701 100.0464 12.28961475248713
Epoch: 2024-12-25T15:07Z
Definitive object data (Epoch: 2024-12-25T15:07:29.489Z)
Latitude12.1819°
Longitude-179.82333°
Altitude1,573.371 km
Speed7.074 km/s
True Right ascension09h 26m 40s
True Declination12° 07' 06"
Sunlit
Object was in full shadow at TLE epoch
Visualization TLE readout
Latitude68.36913°
Longitude152.58803°
Altitude1,656.351 km
Speed7.01 km/s
Apparent Right ascension00h 45m 26s
Apparent Declination45° 40' 02"
Sunlit
Object is in full shadow
Visualization observer readout
Local Sidereal Time10:20:30
Azimuth335.592° NNW
Elevation1.528°
Doppler factor1
Orbital elements
Apogee altitude1,647.016 km
Perigee altitude1,455.603 km
Semi-major axis7,929.446 km
Eccentricity0.0120698
Inclination101.5567°
RAAN144.1885°
Arg. of periapsis271.0701°
True anomaly101.40459°
Mean anomaly100.0464°
Eccentric anomaly100.72587°
Mean motion3.07382 °/min
BSTAR0.00020978
Orbital period117.12 mins
Loading maneuver chart data...

THORAD DELTA 1 DEB Visibility forecast

Observer location: undefined°, undefined

Span
Click to sort rows by Start time (UTC) header in descending order
Start Az.
Max El. time (UTC)
Max El. Az.
Max El.
End time (UTC)
End Az.
12 mins2024-12-26 21:03:13.504Z48.823° ENE2024-12-26 21:09:13.504Z93.168° ESE19.878°2024-12-26 21:15:13.504Z136.544° SSE
16 mins2024-12-26 22:57:13.504Z15.269° NNE2024-12-26 23:05:13.504Z252.745° W44.709°2024-12-26 23:13:13.504Z203.534° SW
10 mins2024-12-27 00:54:13.504Z342.912° N2024-12-27 00:58:13.504Z312.45° NW19.873°2024-12-27 01:04:13.504Z268.542° W
14 mins2024-12-27 08:14:13.504Z113.686° SE2024-12-27 08:20:13.504Z63.356° ENE30.186°2024-12-27 08:28:13.504Z358.753° N
15 mins2024-12-27 10:08:13.504Z183.047° SSW2024-12-27 10:15:13.504Z260.117° W40.553°2024-12-27 10:23:13.504Z334.115° NNW
|